CYGNUS NG-23 (65616 NORAD) Tracking and Keplerian Element Data

This shows tracking and keplerian element data for the satellite.

Feedback or suggestion? Click here.




ElementValue
Catalog65616
NameCYGNUS NG-23
Epoch Orbit22
Epoch Day354.21533065
Epoch Year2025
RAAN105.4589
Inclination51.6321
Eccentricity0.0003198
Argument of Perigee275.1086
Mean Anonmoly84.9538
Mean Motion15.49679666
Decay Rate6.989E-05
L11 65616U 25208A 25354.21533065 .00006989 00000+0 13177-3 0 9998
L22 65616 51.6321 105.4589 0003198 275.1086 84.9538 15.49679666 226



Live tracking and technical data element details for CYGNUS NG-23 (NORAD 65616). CYGNUS NG-23 can be tracked NOW for your location showing map with azimuth and elevation plus other details from your city location.







IsCatalogInMostPopularTable: catalog: 65616, numindb: 26
Update: records affected: 1



GetName: 65616 CYGNUS NG-23

Hit Count: updated at: Wed, 15 Apr 2026 01:48:08 GMT